Weather History for MYNN - February, 2014

Change the Weather History Date:

Monday, February 24, 2014

  Actual Average Record
Temperature  
Mean Temperature 79 °F -  
Max Temperature 88 °F 80 °F 91 °F (2008)
Min Temperature 70 °F 64 °F 55 °F (1999)
Cooling Degree Days 14    
Growing Degree Days 29 (Base 50)    
Moisture  
Dew Point 70 °F    
Average Humidity 81    
Maximum Humidity 100    
Minimum Humidity 58    
Precipitation  
Precipitation 0.08 in 0.05 in - ()
Sea Level Pressure  
Sea Level Pressure 30.03 in    
Wind  
Wind Speed 2 mph ()    
Max Wind Speed 14 mph    
Max Gust Speed -    
Visibility 6.8 miles    
Events Rain , Thunderstorm    
Averages and records for this station are not official NWS values.
T = Trace of Precipitation, MM = Missing Value Source: Averaged Metar Reports

Daily Weather History Graph

Daily Weather History Graph

Search for Another Location

Airport or City:

Trip Planner

Search our weather history database for the weather conditions in past years. The results will help you decide how hot, cold, wet, or windy it might be!

Date:

Astronomy

Feb. 24, 2014 Rise Set
Actual Time 6:37 AM EST 6:09 PM EST
Civil Twilight 6:13 AM EST 6:32 PM EST
Nautical Twilight 5:47 AM EST 6:59 PM EST
Astronomical Twilight 5:20 AM EST 7:25 PM EST
Moon 2:15 AM EST (2/24) 1:26 PM EST (2/24)
Length of Visible Light 12h 18m
Length of Day
11h 32m
Waning Crescent, 28% of the Moon is Illuminated
Feb 24
Waning Crescent
Mar 1
New
Mar 8
First Quarter
Mar 16
Full
Mar 23
Last Quarter

Hourly Weather History & Observations

Time (EST) Temp. Heat Index Dew Point Humidity Pressure Visibility Wind Dir Wind Speed Gust Speed Precip Events Conditions
1:00 AM 74 °F - 71 °F 87% 30.02 in 9 mi Calm Calm - -   Scattered Clouds
1:00 AM 73.4 °F - 71.6 °F 94% 30.02 in 6.2 mi Calm Calm - N/A   Partly Cloudy
2:00 AM 73.4 °F - 68.0 °F 83% 30.00 in 6.2 mi Calm Calm - N/A   Scattered Clouds
3:00 AM 73.4 °F - 68.0 °F 83% 30.01 in 6.2 mi Calm Calm - N/A   Partly Cloudy
4:00 AM 71 °F - 70 °F 94% 30.01 in 9 mi Calm Calm - -   Partly Cloudy
4:00 AM 71.6 °F - 69.8 °F 94% 30.01 in 6.2 mi Calm Calm - N/A   Scattered Clouds
5:00 AM 73.4 °F - 68.0 °F 83% 30.02 in 6.2 mi Calm Calm - N/A   Scattered Clouds
6:00 AM 73.4 °F - 68.0 °F 83% 30.03 in 6.2 mi Calm Calm - N/A   Partly Cloudy
7:00 AM 72 °F - 71 °F 96% 30.04 in 9 mi Calm Calm - -   Partly Cloudy
7:00 AM 71.6 °F - 71.6 °F 100% 30.03 in 6.2 mi Variable 2.3 mph - N/A   Scattered Clouds
8:00 AM 75.2 °F - 69.8 °F 83% 30.06 in 6.2 mi South 4.6 mph - N/A   Partly Cloudy
9:00 AM 78.8 °F - 69.8 °F 74% 30.07 in 6.2 mi South 6.9 mph - N/A   Scattered Clouds
10:00 AM 80 °F - 73 °F 74% 30.08 in 9 mi SSW 4.6 mph - -   Partly Cloudy
10:00 AM 80.6 °F 85.4 °F 73.4 °F 79% 30.08 in 6.2 mi SSW 4.6 mph - N/A   Scattered Clouds
11:00 AM 80.6 °F 83.9 °F 69.8 °F 70% 30.06 in 6.2 mi SSW 11.5 mph - N/A   Scattered Clouds
12:00 PM 80.6 °F 83.2 °F 68.0 °F 65% 30.05 in 6.2 mi South 13.8 mph - N/A   Scattered Clouds
1:00 PM - - - %  in 9 mi South 9.2 mph - -  
1:00 PM 84.2 °F 89.6 °F 71.6 °F 66% 30.03 in 6.2 mi South 9.2 mph - N/A   Scattered Clouds
2:00 PM 82.4 °F 84.6 °F 66.2 °F 58% 30.01 in 6.2 mi South 6.9 mph - N/A   Scattered Clouds
3:00 PM 82.4 °F 86.3 °F 69.8 °F 66% 29.99 in 6.2 mi SSE 5.8 mph - N/A   Scattered Clouds
4:00 PM 82 °F - 73 °F 67% 29.99 in 9 mi SSE 6.9 mph - -   Partly Cloudy
4:00 PM 82.4 °F 88.2 °F 73.4 °F 74% 29.99 in 6.2 mi SSE 6.9 mph - N/A   Scattered Clouds
5:00 PM 78.8 °F - 69.8 °F 74% 30.00 in 6.2 mi Variable 1.2 mph - N/A Rain Light Rain Showers
6:00 PM 75.2 °F - 69.8 °F 83% 30.02 in 6.2 mi ESE 3.5 mph - N/A Thunderstorm Thunderstorm
7:00 PM 74 °F - 73 °F 96% 30.03 in 8 mi ESE 1.2 mph - - Rain Light Rain Showers
7:00 PM 73.4 °F - 69.8 °F 88% 30.02 in 6.2 mi Variable 1.2 mph - N/A Rain Light Rain Showers
8:00 PM 73.4 °F - 69.8 °F 88% 30.04 in 6.2 mi SE 3.5 mph - N/A   Mostly Cloudy
9:00 PM 73.4 °F - 69.8 °F 88% 30.05 in 6.2 mi Variable 1.2 mph - N/A   Mostly Cloudy
11:00 PM 73.4 °F - 69.8 °F 88% 30.06 in 6.2 mi Calm Calm - N/A   Scattered Clouds